TimeCDT,TemperatureF,Dew PointF,Humidity,Sea Level PressureIn,VisibilityMPH,Wind Direction,Wind SpeedMPH,Gust SpeedMPH,PrecipitationIn,Events,Conditions,WindDirDegrees,DateUTC
12:53 AM,75.0,60.1,60,29.65,10.0,South,12.7,21.9,N/A,,Overcast,180,2012-10-25 05:53:00
1:53 AM,73.0,60.1,64,29.62,10.0,South,17.3,24.2,N/A,,Mostly Cloudy,180,2012-10-25 06:53:00
2:53 AM,72.0,60.1,66,29.61,10.0,South,13.8,21.9,N/A,,Overcast,170,2012-10-25 07:53:00
3:53 AM,72.0,61.0,68,29.62,10.0,SSW,11.5,27.6,N/A,,Overcast,200,2012-10-25 08:53:00
4:50 AM,69.8,62.6,78,29.64,8.0,SSW,13.8,21.9,0.00,Rain,Light Rain,210,2012-10-25 09:50:00
4:53 AM,70.0,62.1,76,29.61,6.0,SSW,11.5,21.9,0.00,Rain,Light Rain,210,2012-10-25 09:53:00
5:12 AM,62.6,60.8,94,29.68,5.0,WNW,23.0,32.2,0.01,Rain,Light Rain,300,2012-10-25 10:12:00
5:16 AM,57.2,55.4,94,29.69,5.0,WNW,19.6,32.2,0.01,Rain,Light Rain,290,2012-10-25 10:16:00
5:53 AM,50.0,46.0,86,29.72,6.0,NW,16.1,-,0.03,Rain,Light Rain,310,2012-10-25 10:53:00
6:10 AM,48.2,46.4,93,29.76,4.0,NW,17.3,24.2,0.00,Rain,Light Rain,320,2012-10-25 11:10:00
6:17 AM,48.2,46.4,93,29.77,4.0,NW,10.4,24.2,N/A,Rain,Light Rain,310,2012-10-25 11:17:00
6:31 AM,48.2,44.6,87,29.77,7.0,NW,15.0,25.3,0.00,Rain,Light Rain,310,2012-10-25 11:31:00
6:53 AM,48.0,44.1,86,29.79,6.0,NW,15.0,21.9,0.00,Rain,Light Rain,310,2012-10-25 11:53:00
7:53 AM,45.0,41.0,86,29.83,10.0,NW,16.1,-,0.00,Rain,Light Rain,310,2012-10-25 12:53:00
8:53 AM,44.1,41.0,89,29.89,7.0,NW,16.1,20.7,0.01,Rain,Light Rain,310,2012-10-25 13:53:00
9:50 AM,44.6,39.2,81,29.94,10.0,NNW,17.3,-,0.00,,Overcast,330,2012-10-25 14:50:00
9:53 AM,44.1,39.0,82,29.94,10.0,NW,17.3,-,0.00,,Overcast,320,2012-10-25 14:53:00
10:25 AM,44.6,39.2,81,29.97,10.0,NNW,17.3,28.8,N/A,,Overcast,330,2012-10-25 15:25:00
10:51 AM,44.6,37.4,76,30.00,10.0,NW,20.7,28.8,N/A,,Overcast,320,2012-10-25 15:51:00
10:53 AM,44.1,37.9,79,29.99,10.0,NW,19.6,27.6,N/A,,Overcast,320,2012-10-25 15:53:00
11:53 AM,44.1,36.0,73,30.03,10.0,NNW,20.7,28.8,N/A,,Overcast,330,2012-10-25 16:53:00
12:53 PM,44.1,37.9,79,30.06,10.0,NW,18.4,31.1,N/A,,Overcast,320,2012-10-25 17:53:00
1:53 PM,48.0,37.9,68,30.06,10.0,NNW,17.3,28.8,N/A,,Overcast,330,2012-10-25 18:53:00
2:35 PM,51.8,37.4,58,30.07,10.0,NNW,20.7,32.2,N/A,,Mostly Cloudy,340,2012-10-25 19:35:00
2:53 PM,50.0,36.0,59,30.07,10.0,NNW,18.4,29.9,N/A,,Scattered Clouds,340,2012-10-25 19:53:00
3:53 PM,51.1,35.1,54,30.11,10.0,North,19.6,28.8,N/A,,Scattered Clouds,350,2012-10-25 20:53:00
4:53 PM,50.0,33.1,52,30.13,10.0,North,17.3,25.3,N/A,,Partly Cloudy,360,2012-10-25 21:53:00
5:53 PM,48.0,33.1,56,30.18,10.0,North,17.3,21.9,N/A,,Clear,350,2012-10-25 22:53:00
6:53 PM,45.0,32.0,60,30.23,10.0,North,13.8,-,N/A,,Mostly Cloudy,350,2012-10-25 23:53:00
7:53 PM,42.1,30.9,65,30.27,10.0,North,16.1,-,N/A,,Overcast,350,2012-10-26 00:53:00
8:53 PM,39.9,30.0,68,30.30,10.0,North,15.0,20.7,N/A,,Overcast,350,2012-10-26 01:53:00
9:11 PM,41.0,28.4,61,30.29,10.0,North,19.6,27.6,N/A,,Overcast,350,2012-10-26 02:11:00
9:53 PM,39.9,28.9,65,30.32,10.0,NNW,9.2,-,N/A,,Overcast,340,2012-10-26 02:53:00
10:53 PM,39.9,28.0,63,30.34,10.0,NNW,16.1,24.2,N/A,,Overcast,340,2012-10-26 03:53:00
11:53 PM,39.2,28.4,65,30.33,10.0,North,16.1,21.9,N/A,,Overcast,350,2012-10-26 04:53:00